Flag for Brazil Weather past 2 weeks in Rio Grande, Rio Grande do Sul, Brazil

Now
46 °F

Clear.


Feels Like: 46 °F
Forecast: N/A
Wind: 1 mph from Northeast

Location: Pelotas Airport

Current Time: Jul 25, 2014 at 8:09:32 PM

Latest Report: Jul 25, 2014 at 8:00 PM


Visibility: 10 mi

Pressure: 30.15 "Hg

Humidity: 82%

Dew point: 41 °F

Location of Rio GrandeLocation

Historic Weather in Rio Grande — Graph

°F

Rio Grande temperature yesterday

Maximum temperature yesterday: 59 °F (at 12:00 AM)
Minimum temperature yesterday: 45 °F (at 11:00 PM)
Average temperature yesterday: 54 °F

Past Weeks' High & Low Weather Summary

 TemperatureHumidityPressure
High73 °F (Jul 14, 1:00 PM)100% (Jul 10, 9:00 PM)30.36 "Hg (Jul 10, 9:00 PM)
Low39 °F (Jul 25, 6:00 AM)41% (Jul 25, 2:00 PM)29.65 "Hg (Jul 23, 4:00 PM)
Average59 °F88%30.08 "Hg
* Reported Jul 10 6:00 PM — Jul 25 6:00 PM, Rio Grande, Weather by CustomWeather, © 2014

Note: Actual official high and low records may vary slightly from our data, if they occured in-between our weather recording intervals... More about our weather records

Advertising

Rio Grande weather history for previous 24 hours

 ConditionsComfort  
Time TempWeatherWind HumidityBarometerVisibility
6:00 PM
Jul 25
50 °FClear.2 mph67%30.15 "Hg10 mi
5:00 PM55 °FClear.2 mph47%30.15 "Hg10 mi
4:00 PM55 °FSunny.5 mph47%30.15 "Hg10 mi
3:00 PM55 °FSunny.7 mph44%30.12 "Hg10 mi
2:00 PM55 °FPassing clouds.6 mph41%30.15 "HgN/A
1:00 PM55 °FPassing clouds.7 mph44%30.15 "HgN/A
12:00 PM54 °FPassing clouds.6 mph54%30.21 "HgN/A
11:00 AM52 °FSunny.6 mph62%30.21 "Hg10 mi
10:00 AM50 °FSunny.7 mph71%30.21 "Hg10 mi
9:00 AM45 °FSunny.3 mph81%30.18 "Hg10 mi
8:00 AM39 °FSunny.6 mph93%30.15 "Hg10 mi
7:00 AM39 °FSunny.3 mph87%30.12 "Hg10 mi
6:00 AM39 °FClear.3 mph87%30.12 "Hg10 mi
5:00 AM41 °FClear.6 mph87%30.12 "Hg10 mi
4:00 AM41 °FClear.7 mph87%30.12 "Hg10 mi
3:00 AM43 °FClear.5 mph81%30.15 "Hg10 mi
2:00 AM45 °FClear.6 mph76%30.15 "Hg10 mi
1:00 AM45 °FClear.5 mph81%30.15 "Hg10 mi
12:00 AM45 °FClear.6 mph81%30.15 "Hg10 mi
11:00 PM
Jul 24
45 °FClear.5 mph81%30.15 "Hg10 mi
10:00 PM46 °FClear.8 mph82%30.15 "Hg10 mi
9:00 PM50 °FClear.7 mph76%30.12 "Hg10 mi
8:00 PM52 °FPassing clouds.9 mph72%30.12 "HgN/A
Weather by CustomWeather, © 2014

See weather overviewHow to use our weather pages